DW3695 Weather Reports


time (UTC)temp
F
wind
direction
speed
knots
gust
knots
rain 1hr
in
rain 24hr
in
rain mn
in
humidity
%
barometer
mb
20260507204924 55 304 0.0 2.6 0.00 0.01 0.01 78 1012.2
20260507204409 55 304 0.9 2.6 0.00 0.01 0.01 78 1012.1
20260507203907 56 291 2.6 8.7 0.00 0.01 0.01 78 1012.1
20260507203408 56 266 3.5 8.7 0.00 0.01 0.01 77 1012.0
20260507202905 56 298 5.2 7.8 0.00 0.01 0.01 77 1011.9
20260507202406 56 277 6.1 8.7 0.00 0.01 0.01 76 1011.8
20260507201906 56 295 4.3 8.7 0.00 0.01 0.01 76 1011.8
20260507201403 56 327 3.5 7.8 0.00 0.01 0.01 76 1011.8
20260507200902 57 273 5.2 8.7 0.00 0.01 0.01 75 1011.8
20260507200404 57 310 6.1 8.7 0.00 0.01 0.01 75 1011.7
20260507195902 57 281 5.2 8.7 0.00 0.01 0.01 74 1011.7
20260507195402 57 274 6.1 8.7 0.00 0.01 0.01 74 1011.6
20260507194902 58 280 3.5 6.1 0.00 0.01 0.01 73 1011.6
20260507194417 58 300 3.5 7.8 0.00 0.01 0.01 73 1011.4
20260507193902 58 281 4.3 8.7 0.00 0.01 0.01 73 1011.4
20260507193402 58 249 5.2 9.6 0.00 0.01 0.01 73 1011.4
20260507192902 58 270 6.1 10.4 0.00 0.01 0.01 73 1011.3
20260507192403 58 240 7.8 10.4 0.00 0.01 0.01 72 1011.3
20260507191902 58 288 3.5 8.7 0.00 0.01 0.01 72 1011.3
20260507191404 58 283 4.3 8.7 0.00 0.01 0.01 71 1011.2
20260507190902 59 264 4.3 10.4 0.00 0.01 0.01 71 1011.3
20260507190401 59 300 7.0 10.4 0.00 0.01 0.01 70 1011.2
20260507190203 59 307 3.5 9.6 0.00 0.01 0.01 70 1011.0
20260507185402 59 291 6.1 9.6 0.00 0.01 0.01 69 1011.0
20260507184903 59 301 4.3 7.8 0.00 0.01 0.01 69 1011.0
20260507184404 60 310 5.2 7.8 0.00 0.01 0.01 68 1010.9
20260507183902 60 303 1.7 7.8 0.00 0.01 0.01 68 1011.1
20260507183403 60 310 3.5 7.8 0.00 0.01 0.01 67 1011.1
20260507182903 60 307 5.2 8.7 0.00 0.01 0.01 67 1011.2
20260507182404 60 316 4.3 8.7 0.00 0.01 0.01 66 1011.1
20260507181905 61 297 5.2 8.7 0.00 0.01 0.01 66 1011.2
20260507181403 61 311 4.3 7.8 0.00 0.01 0.01 66 1011.1
20260507180902 61 327 5.2 7.8 0.00 0.01 0.01 65 1011.0
20260507180402 61 310 3.5 5.2 0.00 0.01 0.01 64 1011.1
20260507175902 61 303 4.3 7.8 0.00 0.01 0.01 64 1011.1
20260507175401 62 310 3.5 7.8 0.00 0.01 0.01 64 1011.0
20260507174900 62 344 1.7 6.1 0.00 0.01 0.01 63 1011.0
20260507174631 62 328 0.9 6.1 0.00 0.01 0.01 61 1010.9
20260507173854 62 288 4.3 8.7 0.00 0.01 0.01 60 1010.9
20260507173354 62 260 7.0 8.7 0.00 0.01 0.01 60 1010.9
20260507173146 62 280 5.2 11.3 0.00 0.01 0.01 59 1010.8
20260507172629 62 264 7.8 11.3 0.00 0.01 0.01 59 1010.7
20260507171854 62 239 7.0 10.4 0.00 0.01 0.01 60 1010.6
20260507171351 62 235 5.2 9.6 0.00 0.01 0.01 59 1010.7
20260507170852 62 202 6.1 10.4 0.00 0.01 0.01 59 1010.6
20260507170349 62 290 5.2 11.3 0.00 0.01 0.01 59 1010.6
20260507165847 62 270 6.1 11.3 0.00 0.01 0.01 58 1010.6
20260507165622 62 250 7.0 10.4 0.00 0.01 0.01 59 1010.6
20260507164845 62 224 4.3 7.8 0.00 0.01 0.01 60 1010.7
20260507164338 62 252 5.2 8.7 0.00 0.01 0.01 60 1010.6
20260507163839 62 214 5.2 8.7 0.00 0.01 0.01 61 1010.6
20260507163338 62 204 3.5 7.8 0.00 0.01 0.01 62 1010.6
20260507162835 61 235 5.2 8.7 0.00 0.01 0.01 66 1010.6
20260507162334 61 173 6.1 8.7 0.00 0.01 0.01 65 1010.6
20260507161835 62 170 4.3 8.7 0.00 0.01 0.01 65 1010.6
20260507161332 62 218 4.3 10.4 0.00 0.01 0.01 64 1010.6
20260507160833 62 181 7.8 10.4 0.00 0.01 0.01 64 1010.6
20260507160331 62 208 4.3 7.8 0.00 0.01 0.01 67 1010.6
20260507155831 62 181 4.3 7.8 0.00 0.01 0.01 66 1010.6
20260507155329 63 225 4.3 8.7 0.00 0.01 0.01 64 1010.6
20260507154831 62 177 5.2 8.7 0.00 0.01 0.01 64 1010.6
20260507154330 63 197 4.3 6.1 0.00 0.01 0.01 62 1010.6
20260507154101 63 222 3.5 6.1 0.00 0.01 0.01 60 1010.6
20260507153330 64 194 3.5 7.8 0.00 0.01 0.01 56 1010.6
20260507153100 64 233 5.2 8.7 0.00 0.01 0.01 54 1010.6
20260507152330 65 236 5.2 8.7 0.00 0.01 0.01 54 1010.6
20260507151829 65 264 6.1 10.4 0.00 0.01 0.01 53 1010.7
20260507151559 66 284 6.1 10.4 0.00 0.01 0.01 53 1010.6
20260507150826 66 290 6.1 8.7 0.00 0.01 0.01 58 1010.6
20260507150553 65 284 1.7 7.8 0.00 0.01 0.01 56 1010.6
20260507145822 64 304 3.5 8.7 0.00 0.01 0.01 57 1010.7
20260507145321 64 243 5.2 8.7 0.00 0.01 0.01 56 1010.8
20260507144822 64 209 4.3 6.1 0.00 0.01 0.01 57 1010.7
20260507144552 64 209 2.6 7.8 0.00 0.01 0.01 58 1010.8
20260507143821 64 180 3.5 8.7 0.00 0.01 0.01 58 1010.7
20260507143321 63 245 5.2 9.6 0.00 0.01 0.01 59 1010.8
20260507142820 64 221 7.8 9.6 0.00 0.01 0.01 60 1010.9
20260507142319 64 170 4.3 9.6 0.00 0.01 0.01 59 1010.8
20260507141818 65 235 7.0 9.6 0.00 0.01 0.01 61 1010.9
20260507141319 64 231 7.0 9.6 0.00 0.01 0.01 62 1010.8
20260507140815 62 184 5.2 8.7 0.00 0.01 0.01 63 1010.8
20260507140315 62 185 4.3 7.8 0.00 0.01 0.01 60 1010.9
20260507135816 62 143 3.5 8.7 0.00 0.01 0.01 60 1011.0
20260507135315 63 208 6.1 8.7 0.00 0.01 0.01 59 1011.0
20260507134814 64 66 2.6 6.1 0.00 0.01 0.01 57 1011.0
20260507134315 65 304 4.3 7.8 0.00 0.01 0.01 57 1011.0
20260507133812 64 283 3.5 8.7 0.00 0.01 0.01 59 1011.1
20260507133310 63 145 5.2 8.7 0.00 0.01 0.01 62 1011.1
20260507132810 62 201 5.2 7.8 0.00 0.01 0.01 62 1011.2
20260507132539 61 233 2.6 7.8 0.00 0.01 0.01 64 1011.3
20260507131810 61 207 5.2 7.8 0.00 0.01 0.01 63 1011.4
20260507131307 61 156 1.7 8.7 0.00 0.01 0.01 64 1011.3
20260507130806 61 201 6.1 8.7 0.00 0.01 0.01 63 1011.3
20260507130305 61 195 4.3 7.8 0.00 0.01 0.01 63 1011.4
20260507125805 61 231 4.3 6.1 0.00 0.01 0.01 60 1011.4
20260507125307 62 187 4.3 6.1 0.00 0.01 0.01 59 1011.4
20260507124803 62 184 2.6 6.1 0.00 0.01 0.01 61 1011.3
20260507124303 60 246 5.2 9.6 0.00 0.01 0.01 61 1011.4
20260507123802 61 205 6.1 9.6 0.00 0.01 0.01 63 1011.4
20260507123302 61 286 7.0 9.6 0.00 0.01 0.01 64 1011.4
20260507123038 61 215 5.2 9.6 0.00 0.01 0.01 62 1011.4
20260507122307 61 214 5.2 9.6 0.00 0.01 0.01 63 1011.6
20260507121802 61 274 5.2 9.6 0.00 0.01 0.01 64 1011.4
20260507121302 61 256 6.1 9.6 0.00 0.01 0.01 63 1011.6
20260507120803 61 253 7.8 9.6 0.00 0.01 0.01 63 1011.6
20260507115803 60 288 4.3 10.4 0.00 0.01 0.01 65 1011.6
20260507115306 60 238 6.1 11.3 0.00 0.01 0.01 66 1011.6
20260507115036 61 291 5.2 11.3 0.00 0.01 0.01 67 1011.6
20260507114301 61 307 5.2 10.4 0.00 0.01 0.01 66 1011.4
20260507114032 61 273 3.5 13.0 0.00 0.01 0.01 70 1011.4
20260507113259 61 229 7.0 13.0 0.00 0.01 0.01 68 1011.6
20260507112800 61 215 2.6 7.8 0.00 0.01 0.01 64 1011.6
20260507112259 61 264 4.3 8.7 0.00 0.01 0.01 66 1011.6
20260507111759 60 236 4.3 8.7 0.00 0.01 0.01 68 1011.6
20260507111259 60 260 7.0 8.7 0.00 0.01 0.01 69 1011.6
20260507110800 60 281 6.1 10.4 0.00 0.01 0.01 66 1011.7
20260507110300 61 248 6.1 10.4 0.00 0.01 0.01 67 1011.6
20260507105754 62 226 7.0 10.4 0.00 0.01 0.01 63 1011.6
20260507105255 61 279 6.1 8.7 0.00 0.01 0.01 65 1011.7
20260507105049 60 334 3.5 9.6 0.00 0.01 0.01 68 1011.7
20260507104253 59 222 5.2 9.6 0.00 0.01 0.01 68 1011.7
20260507103752 60 243 5.2 9.6 0.00 0.01 0.01 69 1011.8
20260507103525 60 259 7.0 9.6 0.00 0.01 0.01 67 1011.8
20260507103027 60 307 0.9 7.8 0.00 0.01 0.01 69 1011.8
20260507102254 59 256 3.5 7.8 0.00 0.02 0.01 68 1011.9
20260507101753 59 298 5.2 7.8 0.00 0.02 0.01 73 1011.8
20260507101528 59 297 4.3 7.8 0.00 0.02 0.01 70 1011.9
20260507100753 58 276 4.3 7.8 0.00 0.02 0.01 70 1011.9
20260507100309 58 193 5.2 7.8 0.00 0.02 0.01 72 1012.0
20260507095753 58 307 3.5 8.7 0.00 0.02 0.01 71 1012.0
20260507095253 59 216 6.1 8.7 0.00 0.02 0.01 69 1012.0
20260507094753 60 310 2.6 8.7 0.00 0.02 0.01 69 1011.9
20260507094253 60 347 3.5 8.7 0.00 0.02 0.01 71 1012.0
20260507093753 59 288 4.3 6.1 0.00 0.02 0.01 73 1012.0
20260507093247 58 341 3.5 8.7 0.00 0.02 0.01 73 1011.9
20260507093022 59 288 4.3 8.7 0.00 0.02 0.01 72 1012.0
20260507092245 58 327 2.6 7.8 0.00 0.02 0.01 73 1012.0
20260507092027 58 4 2.6 9.6 0.00 0.02 0.01 76 1012.0
20260507091244 57 307 3.5 9.6 0.00 0.02 0.01 78 1012.0
20260507090743 56 277 3.5 9.6 0.00 0.02 0.01 76 1012.0
20260507090245 57 212 6.1 9.6 0.00 0.02 0.01 76 1012.0
20260507085742 56 310 7.8 9.6 0.00 0.02 0.01 79 1012.0
20260507085236 56 226 6.1 9.6 0.00 0.02 0.01 76 1012.0
20260507084735 57 330 6.1 10.4 0.00 0.02 0.01 76 1011.9
20260507084235 57 310 7.8 10.4 0.00 0.02 0.01 76 1011.9
20260507083735 57 229 4.3 9.6 0.00 0.02 0.01 76 1011.9
20260507083235 56 260 6.1 9.6 0.00 0.02 0.01 77 1011.8
20260507082735 56 307 7.8 9.6 0.00 0.02 0.01 79 1011.8
20260507082235 55 264 6.1 9.6 0.00 0.02 0.01 80 1011.8
20260507081734 54 304 3.5 11.3 0.00 0.02 0.01 82 1011.9
20260507081453 54 267 5.2 11.3 0.00 0.02 0.01 83 1012.0
20260507080959 54 286 4.3 6.1 0.00 0.02 0.01 85 1011.9
20260507080234 54 301 3.5 5.2 0.00 0.02 0.01 86 1011.9
20260507075730 53 277 4.3 5.2 0.00 0.02 0.01 86 1011.9
20260507075229 53 279 2.6 5.2 0.00 0.02 0.01 86 1011.9
20260507074729 53 266 0.9 3.5 0.00 0.02 0.01 88 1011.9
20260507074229 52 281 1.7 4.3 0.00 0.02 0.01 88 1011.9
20260507073731 52 307 2.6 4.3 0.00 0.02 0.01 90 1011.9
20260507073229 52 281 0.9 3.5 0.00 0.02 0.01 91 1011.9
20260507072728 52 310 0.9 3.5 0.00 0.02 0.01 91 1011.9
20260507071729 51 310 0.9 2.6 0.00 0.02 0.01 93 1011.9
20260507071221 51 310 0.0 2.6 0.00 0.02 0.01 92 1011.8
20260507070718 51 310 1.7 2.6 0.00 0.02 0.01 93 1011.9
20260507070219 51 310 1.7 2.6 0.00 0.02 0.01 93 1011.7
20260507065716 50 310 0.0 2.6 0.00 0.02 0.01 93 1011.8
20260507065214 50 310 0.9 4.3 0.00 0.02 0.01 93 1011.7
20260507064713 50 295 1.7 4.3 0.00 0.02 0.01 93 1011.8
20260507064213 50 270 1.7 4.3 0.00 0.02 0.01 93 1011.8
20260507063930 50 204 1.7 2.6 0.00 0.02 0.01 94 1011.8
20260507063224 50 204 0.0 0.9 0.00 0.02 0.01 94 1011.7
20260507062931 50 204 0.0 0.0 0.00 0.02 0.01 94 1011.7
20260507062204 49 204 0.0 2.6 0.00 0.02 0.01 94 1011.6
20260507061705 49 204 0.0 3.5 0.00 0.02 0.01 94 1011.7
20260507061425 49 204 2.6 4.3 0.00 0.02 0.01 94 1011.6
20260507060704 49 204 2.6 4.3 0.00 0.02 0.01 94 1011.3
20260507060203 49 191 2.6 3.5 0.00 0.02 0.01 94 1011.3
20260507055705 49 169 1.7 2.6 0.00 0.02 0.01 94 1011.3
20260507055203 49 169 0.9 2.6 0.00 0.02 0.01 94 1011.3
20260507054922 49 169 1.7 2.6 0.00 0.02 0.01 94 1011.3
20260507054202 49 271 0.0 1.7 0.00 0.02 0.01 94 1011.3
20260507053702 49 271 0.0 1.7 0.00 0.02 0.01 94 1011.3
20260507053431 49 271 0.0 0.0 0.00 0.02 0.01 94 1011.2
20260507052702 49 271 0.0 0.0 0.00 0.02 0.01 94 1011.0
20260507052204 49 271 0.0 2.6 0.00 0.02 0.01 94 1011.1
20260507051701 49 271 0.0 4.3 0.00 0.02 0.01 94 1011.1
20260507051203 49 271 3.5 4.3 0.00 0.02 0.01 94 1011.0
20260507050702 49 248 2.6 4.3 0.00 0.02 0.01 94 1010.9
20260507050204 48 277 0.0 3.5 0.00 0.02 0.01 94 1010.8
20260507045921 48 277 1.7 3.5 0.00 0.02 0.01 94 1010.8
20260507045159 48 215 1.7 2.6 0.00 0.02 0.01 94 1010.8
20260507044658 48 215 1.7 1.7 0.00 0.02 0.01 94 1010.7
20260507044157 48 215 0.0 0.9 0.00 0.02 0.01 94 1010.7
20260507043914 48 215 0.0 3.5 0.00 0.02 0.01 94 1010.7
20260507043155 48 215 1.7 3.5 0.00 0.02 0.01 94 1010.6
20260507042653 48 214 2.6 2.6 0.00 0.02 0.01 94 1010.6
20260507042153 48 139 0.0 0.0 0.00 0.02 0.01 94 1010.4
20260507041653 48 139 0.0 0.0 0.00 0.02 0.01 94 1010.4
20260507041150 48 139 0.0 0.0 0.00 0.02 0.01 94 1010.4
20260507040650 48 139 0.0 0.0 0.00 0.02 0.01 94 1010.4
20260507040149 48 139 0.0 2.6 0.00 0.02 0.01 94 1010.4
20260507035642 48 139 1.7 2.6 0.00 0.02 0.01 94 1010.4
20260507035142 48 180 0.9 2.6 0.00 0.02 0.01 94 1010.4
20260507034644 48 190 1.7 2.6 0.00 0.02 0.01 94 1010.4
20260507034142 48 190 2.6 2.6 0.00 0.02 0.01 94 1010.4
20260507033642 48 74 0.9 3.5 0.00 0.02 0.01 94 1010.4
20260507033139 48 74 0.9 3.5 0.00 0.02 0.01 94 1010.3
20260507032639 48 74 1.7 3.5 0.00 0.02 0.01 94 1010.3
20260507032136 48 74 0.0 0.0 0.00 0.02 0.01 94 1010.3
20260507031638 48 74 0.0 0.9 0.00 0.02 0.01 94 1010.3
20260507031134 48 74 0.0 2.6 0.00 0.02 0.01 94 1010.4
20260507030134 48 74 1.7 3.5 0.00 0.02 0.01 94 1010.2
20260507025633 48 74 2.6 3.5 0.00 0.02 0.01 94 1010.3
20260507024645 48 74 2.6 2.6 0.00 0.02 0.01 94 1010.3
20260507023631 49 73 0.0 0.0 0.00 0.02 0.01 94 1010.2
20260507023131 49 73 0.0 1.7 0.01 0.02 0.01 94 1010.1
20260507022630 49 73 0.9 1.7 0.01 0.02 0.01 94 1010.2
20260507022131 49 73 0.9 2.6 0.01 0.02 0.01 94 1010.1
20260507021631 49 73 1.7 2.6 0.01 0.02 0.01 94 1010.2
20260507021130 49 180 0.9 3.5 0.01 0.02 0.01 94 1010.2
20260507020630 49 180 1.7 3.5 0.01 0.02 0.01 94 1010.3
20260507020350 49 209 2.6 4.3 0.01 0.02 0.01 94 1010.3
20260507015630 49 190 2.6 4.3 0.01 0.01 0.01 94 1010.2
20260507015131 49 187 3.5 5.2 0.01 0.01 0.01 94 1010.2
20260507014850 49 193 4.3 5.2 0.01 0.01 0.01 94 1010.1
20260507014133 49 170 2.6 2.6 0.01 0.01 0.01 94 1009.9
20260507013631 49 170 1.7 2.6 0.01 0.01 0.01 94 1009.9
20260507013131 49 170 1.7 4.3 0.00 0.01 0.00 94 1009.8
20260507012631 49 87 2.6 5.2 0.00 0.01 0.00 94 1009.8
20260507012130 49 16 3.5 6.1 0.00 0.01 0.00 94 1009.7
20260507011631 49 42 3.5 6.1 0.00 0.01 0.00 94 1009.8
20260507011131 48 16 4.3 5.2 0.00 0.02 0.00 93 1010.0
20260507010629 48 235 0.0 2.6 0.00 0.02 0.00 93 1010.1
20260507010359 48 235 0.9 2.6 0.00 0.02 0.00 93 1010.1
20260507005622 48 235 0.0 1.7 0.00 0.02 0.00 93 1010.1
20260507005121 48 235 0.0 3.5 0.00 0.02 0.00 93 1010.1
20260507004855 48 235 1.7 3.5 0.00 0.02 0.00 93 1010.1
20260507004123 48 235 3.5 3.5 0.00 0.02 0.00 93 1010.1
20260507003621 48 235 2.6 3.5 0.00 0.02 0.00 93 1010.0
20260507003342 48 235 2.6 3.5 0.00 0.02 0.00 93 1010.0
20260507002617 48 200 0.9 1.7 0.00 0.02 0.00 93 1009.9
20260507002118 48 200 0.0 3.5 0.00 0.02 0.00 93 1009.9
20260507001852 48 200 0.0 4.3 0.00 0.02 0.00 93 1009.8
20260507001116 48 224 2.6 4.3 0.00 0.02 0.00 93 1009.9
20260507000616 48 193 2.6 4.3 0.00 0.02 0.00 93 1009.9
20260507000114 49 166 2.6 4.3 0.00 0.02 0.00 93 1009.8
20260506235613 49 147 3.5 4.3 0.00 0.02 0.00 93 1009.9
20260506235114 49 112 2.6 2.6 0.00 0.02 0.00 93 1009.8
20260506234833 49 30 2.6 2.6 0.00 0.02 0.00 93 1009.7
20260506234111 49 290 0.0 3.5 0.00 0.02 0.00 93 1009.8
20260506233610 49 290 0.0 3.5 0.00 0.02 0.00 93 1009.9
20260506233109 49 270 2.6 4.3 0.00 0.02 0.00 93 1010.0
20260506232607 49 245 1.7 4.3 0.00 0.02 0.00 93 1010.1
20260506232109 49 245 2.6 6.1 0.00 0.02 0.00 92 1010.1
20260506231608 48 215 5.2 6.1 0.00 0.02 0.00 92 1010.1
20260506231108 48 337 0.0 6.1 0.00 0.02 0.00 92 1010.0
20260506230607 48 263 2.6 6.1 0.00 0.02 0.00 93 1010.0
20260506230333 48 238 5.2 6.1 0.00 0.02 0.00 93 1010.0
20260506225603 48 8 0.0 5.2 0.00 0.02 0.00 93 1009.9
20260506225102 48 8 5.2 5.2 0.00 0.02 0.00 93 1009.7
20260506224602 48 310 1.7 4.3 0.00 0.02 0.00 92 1009.9
20260506224102 48 280 2.6 4.3 0.00 0.02 0.00 92 1010.0
20260506223559 48 257 3.5 4.3 0.00 0.02 0.00 93 1009.9
20260506223058 48 257 1.7 4.3 0.00 0.02 0.00 93 1009.8
20260506222559 48 257 2.6 4.3 0.00 0.02 0.00 93 1009.8
20260506222057 48 226 2.6 3.5 0.00 0.02 0.00 92 1009.8
20260506221553 48 135 1.7 2.6 0.00 0.02 0.00 92 1009.7
20260506221052 49 135 0.0 0.9 0.00 0.02 0.00 93 1009.7
20260506220553 49 135 0.0 0.9 0.00 0.02 0.00 92 1009.5
20260506220053 49 135 0.0 1.7 0.00 0.02 0.00 92 1009.7
20260506215553 49 135 0.0 2.6 0.00 0.02 0.02 92 1009.5
20260506215053 49 135 0.9 2.6 0.00 0.02 0.02 92 1009.5
20260506214553 49 159 1.7 2.6 0.00 0.02 0.02 93 1009.5
20260506214052 49 159 1.7 2.6 0.00 0.02 0.02 93 1009.4
20260506213815 49 159 1.7 2.6 0.00 0.02 0.02 93 1009.4
20260506213052 49 135 1.7 3.5 0.00 0.02 0.02 93 1009.2
20260506212552 49 135 0.0 5.2 0.00 0.02 0.02 93 1009.2
20260506212052 49 75 3.5 5.2 0.00 0.02 0.02 93 1009.2
20260506211605 49 53 2.6 4.3 0.00 0.02 0.02 92 1009.2
20260506211052 49 19 0.9 4.3 0.00 0.02 0.02 92 1009.2
20260506210812 49 22 0.9 3.5 0.00 0.02 0.02 92 1009.2
20260506210058 49 12 0.9 4.3 0.00 0.02 0.02 92 1009.2
20260506205552 49 11 1.7 5.2 0.00 0.02 0.02 92 1009.2